sat.trackr.live / text

‹ back to catalog

STARLINK-32404

NORAD 61710 · 2024-196D

PAYLOAD ACTIVE UNKNOWN

§ Identity

Operator
Country
US
Launch date
2024-10-30
Launch site
AFETR
Launch vehicle
Mass (kg)
RCS (m²)

Purposes: comms

External: N2YO · Heavens-Above · Gunter

§ Orbital elements

Epoch: 2026-05-25T04:09:39.359808Z

Period
94.11 min
Inclination
53.1603°
Eccentricity
0.0001231
Mean motion
15.30195783 rev/d
Perigee alt
474.4 km
Apogee alt
476.1 km
Semi-major
6,853.4 km
B*
2.2871e-5
RAAN
106.2927°
Arg perigee
82.3335°
Mean anomaly
277.7805°
Rev number
8,886

§ Raw data

STARLINK-324041 61710U 24196D   26145.17337222  .00000318  00000+0  22871-4 0  99972 61710  53.1603 106.2927 0001231  82.3335 277.7805 15.30195783 88861

JSON: /api/v1/satellites/61710 · /tle

For live sub-satellite position, see the globe view (requires WebGL).

§ Visibility from observer

Set your observer location to see the next 7 days of passes ≥ 10°. The values pass through the URL so the page stays shareable.

No JS? Fill the form by hand. The geolocation button needs JavaScript.